Location: Marse
(42.1502°N, 110.9866°W)
Time: 01:06:02
(UTC+00:00)

QB50P2 - Pass Details

Date: 02 July 2022
Orbit: 590 x 605 km, 97.9° (Epoch: 15 August)

Event Time Altitude Azimuth Distance (km) Brightness Sun altitude
Rises 09:56:02 0° 356° (N) 2,860 ? -16.4°
Reaches altitude 10° 09:58:45 10° 338° (NNW) 1,955 ? -16.1°
Maximum altitude 10:01:39 18° 295° (WNW) 1,488 ? -15.8°
Enters shadow 10:03:17 15° 267° (W) 1,650 ? -15.6°
